Weather History for Columbia Owens, SC

Change the Weather History Date:

Wednesday, April 24, 2013

  Actual Average Record
Temperature  
Mean Temperature 68 °F 66 °F  
Max Temperature 81 °F 79 °F 91 °F (2006)
Min Temperature 54 °F 54 °F 39 °F (2012)
Degree Days  
Heating Degree Days 0 2  
Month to date heating degree days 79 88  
Since 1 July heating degree days 2170 2291  
Cooling Degree Days 3 3  
Month to date cooling degree days 68 59  
Year to date cooling degree days 103 77  
Growing Degree Days 16 (Base 50)    
Moisture  
Dew Point 54 °F    
Average Humidity 67    
Maximum Humidity 93    
Minimum Humidity 39    
Precipitation  
Precipitation 0.00 in 0.08 in 0.00 in (2014)
Month to date precipitation 2.35 2.23  
Year to date precipitation 12.86 13.39  
Sea Level Pressure  
Sea Level Pressure 30.13 in    
Wind  
Wind Speed 5 mph (SW)    
Max Wind Speed 14 mph    
Max Gust Speed 21 mph    
Visibility 10 miles    
Events      
T = Trace of Precipitation, MM = Missing Value Source: NWS Daily Summary

Daily Weather History Graph

Daily Weather History Graph

Search for Another Location

Airport:

Trip Planner

Search our weather history database for the weather conditions in past years. The results will help you decide how hot, cold, wet, or windy it might be!

Date:

Astronomy

Apr. 24, 2013 Rise Set
Actual Time 6:42 AM EDT 8:02 PM EDT
Civil Twilight 6:15 AM EDT 8:28 PM EDT
Nautical Twilight 5:44 AM EDT 9:00 PM EDT
Astronomical Twilight 5:12 AM EDT 9:32 PM EDT
Moon 7:05 PM EDT (4/24) 5:41 AM EDT (4/24)
Length of Visible Light 14h 12m
Length of Day
13h 20m
Waxing Gibbous, 98% of the Moon is Illuminated
Apr 24
Waxing Gibbous
Apr 25
Full
May 2
Last Quarter
May 9
New
May 18
First Quarter

Hourly Weather History & Observations

Time (EDT) Temp. Heat Index Dew Point Humidity Pressure Visibility Wind Dir Wind Speed Gust Speed Precip Events Conditions
12:53 AM 55.0 °F - 52.0 °F 89% 30.17 in 10.0 mi Calm Calm - N/A   Clear
1:53 AM 55.0 °F - 52.0 °F 89% 30.17 in 10.0 mi Calm Calm - N/A   Clear
2:20 AM 55.4 °F - 51.8 °F 88% 30.16 in 10.0 mi Calm Calm - N/A   Partly Cloudy
2:38 AM 53.6 °F - 51.8 °F 94% 30.16 in 10.0 mi Calm Calm - N/A   Mostly Cloudy
2:53 AM 55.0 °F - 53.1 °F 93% 30.15 in 10.0 mi Calm Calm - N/A   Overcast
3:53 AM 55.9 °F - 54.0 °F 93% 30.15 in 9.0 mi SW 6.9 mph - N/A   Overcast
4:53 AM 57.0 °F - 54.0 °F 89% 30.16 in 9.0 mi Calm Calm - N/A   Overcast
6:53 AM 57.0 °F - 54.0 °F 89% 30.16 in 10.0 mi SSW 3.5 mph - N/A   Overcast
7:53 AM 57.0 °F - 54.0 °F 89% 30.18 in 10.0 mi Calm Calm - N/A   Mostly Cloudy
8:06 AM 57.2 °F - 53.6 °F 88% 30.18 in 10.0 mi Calm Calm - N/A   Scattered Clouds
8:53 AM 60.1 °F - 54.0 °F 80% 30.18 in 10.0 mi SW 4.6 mph - N/A   Clear
9:53 AM 64.9 °F - 54.0 °F 68% 30.17 in 10.0 mi SSW 6.9 mph - N/A   Clear
10:53 AM 70.0 °F - 55.0 °F 59% 30.16 in 10.0 mi South 8.1 mph - N/A   Clear
11:53 AM 73.0 °F - 55.0 °F 53% 30.14 in 10.0 mi South 6.9 mph - N/A   Clear
12:53 PM 75.9 °F - 53.1 °F 45% 30.14 in 10.0 mi SW 10.4 mph 17.3 mph N/A   Partly Cloudy
1:53 PM 78.1 °F - 54.0 °F 43% 30.12 in 10.0 mi WSW 8.1 mph - N/A   Mostly Cloudy
2:53 PM 80.1 °F 79.9 °F 53.1 °F 39% 30.10 in 10.0 mi SW 13.8 mph 20.7 mph N/A   Mostly Cloudy
3:53 PM 79.0 °F - 53.1 °F 40% 30.08 in 10.0 mi SW 10.4 mph - N/A   Scattered Clouds
4:53 PM 79.0 °F - 52.0 °F 39% 30.05 in 10.0 mi SW 8.1 mph - N/A   Clear
5:53 PM 78.1 °F - 53.1 °F 42% 30.05 in 10.0 mi SW 6.9 mph 16.1 mph N/A   Clear
6:53 PM 77.0 °F - 54.0 °F 45% 30.06 in 10.0 mi SW 3.5 mph - N/A   Partly Cloudy
7:53 PM 75.0 °F - 55.0 °F 50% 30.06 in 10.0 mi SW 5.8 mph - N/A   Clear
8:53 PM 73.0 °F - 55.0 °F 53% 30.07 in 10.0 mi SSW 3.5 mph - N/A   Scattered Clouds
9:53 PM 71.1 °F - 55.9 °F 59% 30.08 in 10.0 mi Calm Calm - N/A   Overcast
10:53 PM 71.1 °F - 55.9 °F 59% 30.09 in 10.0 mi Calm Calm - N/A   Mostly Cloudy
11:53 PM 69.1 °F - 57.9 °F 68% 30.09 in 10.0 mi Calm Calm - N/A   Overcast